Weather History for New York, NY

Change the Weather History Date:

Tuesday, December 27, 2011

  Actual Average Record
Temperature  
Mean Temperature 48 °F 35 °F  
Max Temperature 58 °F 41 °F 63 °F (1949)
Min Temperature 37 °F 29 °F 9 °F (1989)
Degree Days  
Heating Degree Days 17 30  
Month to date heating degree days 569 708  
Since 1 July heating degree days 1191 1483  
Cooling Degree Days 0 0  
Month to date cooling degree days 0 0  
Year to date cooling degree days 1375 1214  
Moisture  
Dew Point 43 °F    
Average Humidity 73    
Maximum Humidity 93    
Minimum Humidity 53    
Precipitation  
Precipitation 1.17 in 0.11 in 1.17 in (2011)
Month to date precipitation 3.91 3.16  
Year to date precipitation 65.33 44.33  
Snow  
Snow 0.00 in 0.20 in 4.80 in (1984)
Month to date snowfall 0.0 4.2  
Since 1 July snowfall 1.7 4.5  
Snow Depth 0.00 in    
Sea Level Pressure  
Sea Level Pressure 29.65 in    
Wind  
Wind Speed 14 mph (South)    
Max Wind Speed 37 mph    
Max Gust Speed 48 mph    
Visibility 7 miles    
Events Rain    
T = Trace of Precipitation, MM = Missing Value Source: NWS Daily Summary

Daily Weather History Graph

Daily Weather History Graph

Search for Another Location

Airport:

Trip Planner

Search our weather history database for the weather conditions in past years. The results will help you decide how hot, cold, wet, or windy it might be!

Date:

Astronomy

Dec. 27, 2011 Rise Set
Actual Time 7:18 AM EST 4:34 PM EST
Civil Twilight 6:47 AM EST 5:05 PM EST
Nautical Twilight 6:13 AM EST 5:39 PM EST
Astronomical Twilight 5:39 AM EST 6:13 PM EST
Moon 9:11 AM EST (12/27) 8:06 PM EST (12/27)
Length of Visible Light 10h 17m
Length of Day
9h 15m
Waxing Crescent, 11% of the Moon is Illuminated
Dec 27
Waxing Crescent
Jan 1
First Quarter
Jan 9
Full
Jan 16
Last Quarter
Jan 23
New

Hourly Weather History & Observations

Time (EST) Temp. Windchill Dew Point Humidity Pressure Visibility Wind Dir Wind Speed Gust Speed Precip Events Conditions
12:51 AM 37.9 °F 32.7 °F 26.1 °F 62% 30.22 in 10.0 mi SW 6.9 mph - N/A   Partly Cloudy
1:51 AM 37.4 °F 33.8 °F 26.6 °F 65% 30.19 in 10.0 mi SSW 4.6 mph - N/A   Mostly Cloudy
2:51 AM 39.0 °F 34.0 °F 25.0 °F 57% 30.19 in 10.0 mi SSW 6.9 mph - N/A   Mostly Cloudy
3:51 AM 39.0 °F 33.4 °F 27.0 °F 62% 30.16 in 10.0 mi SSW 8.1 mph - N/A   Mostly Cloudy
4:51 AM 39.0 °F 35.7 °F 27.0 °F 62% 30.14 in 10.0 mi SSW 4.6 mph - N/A   Mostly Cloudy
5:51 AM 39.0 °F 35.7 °F 27.0 °F 62% 30.12 in 10.0 mi SSW 4.6 mph - N/A   Mostly Cloudy
6:51 AM 39.2 °F 33.0 °F 26.6 °F 61% 30.11 in 10.0 mi SSW 9.2 mph - N/A   Mostly Cloudy
7:51 AM 41.0 °F 35.8 °F 26.1 °F 55% 30.10 in 10.0 mi SSW 8.1 mph - N/A   Overcast
8:51 AM 42.1 °F 35.7 °F 28.9 °F 60% 30.09 in 10.0 mi SSW 11.5 mph - N/A   Overcast
9:51 AM 44.1 °F 37.7 °F 28.9 °F 55% 30.06 in 10.0 mi SSW 12.7 mph - N/A   Overcast
10:51 AM 45.0 °F 39.3 °F 32.0 °F 60% 30.01 in 10.0 mi South 11.5 mph 17.3 mph N/A   Overcast
11:51 AM 46.9 °F - 36.0 °F 66% 29.93 in 10.0 mi South 10.4 mph 20.7 mph N/A   Overcast
12:51 PM 48.0 °F - 39.0 °F 71% 29.88 in 10.0 mi South 11.5 mph - N/A   Overcast
1:51 PM 48.0 °F - 41.0 °F 77% 29.80 in 10.0 mi SSE 9.2 mph - 0.00 in   Overcast
2:51 PM 48.2 °F - 42.8 °F 82% 29.73 in 6.0 mi SE 13.8 mph 19.6 mph N/A Rain Light Rain
2:58 PM 48.2 °F - 44.6 °F 87% 29.73 in 5.0 mi SSE 15.0 mph 19.6 mph 0.01 in Rain Light Rain
3:39 PM 50.0 °F - 46.4 °F 87% 29.68 in 4.0 mi SE 13.8 mph 23.0 mph 0.08 in Rain Rain
3:51 PM 50.0 °F - 46.0 °F 86% 29.67 in 6.0 mi SE 17.3 mph 25.3 mph 0.10 in Rain Light Rain
4:13 PM 50.0 °F - 46.4 °F 87% 29.62 in 6.0 mi SE 20.7 mph 28.8 mph 0.03 in Rain Light Rain
4:46 PM 51.8 °F - 48.2 °F 88% 29.57 in 6.0 mi SE 25.3 mph 34.5 mph 0.05 in Rain Light Rain
4:51 PM 51.8 °F - 48.2 °F 88% 29.56 in 6.0 mi SE 26.5 mph 40.3 mph N/A Rain Light Rain
5:12 PM 51.8 °F - 48.2 °F 88% 29.53 in 4.0 mi SE 19.6 mph 31.1 mph 0.03 in Rain Light Rain
5:24 PM 53.6 °F - 50.0 °F 88% 29.53 in 4.0 mi SE 23.0 mph 36.8 mph 0.04 in Rain Light Rain
5:46 PM 53.6 °F - 50.0 °F 88% 29.52 in 4.0 mi SSE 23.0 mph 38.0 mph 0.14 in Rain Heavy Rain
5:51 PM 53.1 °F - 50.0 °F 89% 29.52 in 3.0 mi SSE 18.4 mph 33.4 mph 0.16 in Rain Heavy Rain
6:22 PM 53.6 °F - 51.8 °F 94% 29.47 in 4.0 mi SE 13.8 mph 25.3 mph 0.18 in Rain Heavy Rain
6:46 PM 53.6 °F - 51.8 °F 94% 29.43 in 2.5 mi SSE 21.9 mph 29.9 mph 0.35 in Rain Heavy Rain
6:51 PM 54.0 °F - 51.1 °F 90% 29.42 in 2.5 mi SSE 25.3 mph 43.7 mph 0.37 in Rain Heavy Rain
7:03 PM 55.4 °F - 51.8 °F 88% 29.39 in 5.0 mi SSE 27.6 mph 44.9 mph 0.05 in Rain Light Rain
7:51 PM 55.9 °F - 53.1 °F 90% 29.34 in 4.0 mi South 31.1 mph 48.3 mph 0.12 in Rain Light Rain
8:15 PM 55.4 °F - 53.6 °F 94% 29.31 in 2.0 mi SSE 32.2 mph 46.0 mph 0.07 in Rain Heavy Rain
8:25 PM 55.4 °F - 53.6 °F 94% 29.32 in 1.2 mi SSW 26.5 mph 41.4 mph 0.12 in Rain Heavy Rain
8:30 PM 57.2 °F - 53.6 °F 88% 29.32 in 1.5 mi South 25.3 mph 38.0 mph 0.31 in Rain Rain
8:33 PM 57.2 °F - 53.6 °F 88% 29.33 in 2.5 mi South 28.8 mph 39.1 mph 0.32 in Rain Light Rain
8:35 PM 57.2 °F - 53.6 °F 88% 29.32 in 4.0 mi SSW 29.9 mph 43.7 mph 0.32 in Rain Rain
8:48 PM 57.2 °F - 53.6 °F 88% 29.32 in 8.0 mi South 21.9 mph 41.4 mph 0.33 in Rain Light Rain
8:51 PM 57.0 °F - 54.0 °F 89% 29.31 in 10.0 mi South 24.2 mph 34.5 mph 0.33 in Rain Light Rain
9:14 PM 57.2 °F - 51.8 °F 82% 29.34 in 10.0 mi SSW 21.9 mph 33.4 mph N/A Rain Light Rain
9:51 PM 55.4 °F - 50.0 °F 82% 29.34 in 10.0 mi SW 15.0 mph 19.6 mph N/A   Overcast
10:16 PM 53.6 °F - 48.2 °F 82% 29.35 in 10.0 mi SW 13.8 mph 20.7 mph 0.00 in   Mostly Cloudy
10:37 PM 53.6 °F - 48.2 °F 82% 29.35 in 10.0 mi WSW 19.6 mph 25.3 mph 0.00 in   Scattered Clouds
10:51 PM 54.0 °F - 46.9 °F 77% 29.36 in 10.0 mi WSW 17.3 mph 25.3 mph 0.00 in   Scattered Clouds
11:51 PM 50.0 °F - 41.0 °F 71% 29.38 in 10.0 mi WSW 16.1 mph 23.0 mph N/A   Scattered Clouds